Home > Time Zones > World Clock > Weather > Palau > Koror > Past weeks

Flag for Palau Weather past 2 weeks in Koror, Palau

Now
79 °F

Partly cloudy.


Feels Like: 82 °F
Forecast: 79 / 83 °F
Wind: 5 mph from Northeast

Location: Koror / Palau Island

Current Time: Feb 2, 2015 at 2:13:10 AM

Latest Report: Feb 2, 2015 at 1:50 AM


Visibility: 15 mi

Pressure: 29.85 "Hg

Humidity: 89%

Dew point: 75 °F

Location of KororLocation

Historic Weather in Koror — Graph

°F

Koror temperature yesterday

Maximum temperature yesterday: 88 °F (at 11:55 AM)
Minimum temperature yesterday: 77 °F (at 4:55 AM)
Average temperature yesterday: 82 °F

Past Weeks' High & Low Weather Summary

 TemperatureHumidityPressure
High88 °F (Jan 18, 10:50 AM)100% (Jan 18, 3:51 AM)29.97 "Hg (Jan 18, 3:51 AM)
Low75 °F (Jan 18, 3:51 AM)66% (Jan 31, 1:50 PM)28.86 "Hg (Jan 24, 2:54 AM)
Average81 °F86%29.87 "Hg
* Reported Jan 18 12:51 AM — Feb 2 12:53 AM, Koror, Weather by CustomWeather, © 2014

Note: Actual official high and low records may vary slightly from our data, if they occured in-between our weather recording intervals... More about our weather records

Advertising

Koror weather history for previous 24 hours

 ConditionsComfort  
Time TempWeatherWind HumidityBarometerVisibility
12:53 AM
Feb 2
79 °FPartly cloudy.5 mph89%29.87 "Hg15 mi
11:55 PM
Feb 1
79 °FPartly cloudy.No wind89%29.87 "Hg14 mi
9:55 PM81 °FPartly cloudy.No wind84%29.89 "Hg15 mi
8:50 PM79 °FPartly cloudy.No wind89%29.89 "Hg15 mi
7:50 PM81 °FPartly cloudy.3 mph89%29.87 "Hg15 mi
6:53 PM81 °FPartly cloudy.3 mph84%29.85 "Hg15 mi
5:50 PM82 °FBroken clouds.8 mph79%29.83 "Hg15 mi
4:50 PM86 °FBroken clouds.8 mph75%29.81 "Hg15 mi
3:53 PM86 °FBroken clouds.9 mph70%29.81 "Hg15 mi
2:51 PM86 °FBroken clouds.9 mph75%29.81 "Hg15 mi
1:52 PM88 °FBroken clouds.12 mph70%29.82 "Hg15 mi
12:53 PM88 °FBroken clouds.10 mph70%29.85 "Hg15 mi
11:55 AM88 °FBroken clouds.12 mph66%29.87 "Hg15 mi
10:54 AM86 °FBroken clouds.13 mph70%29.89 "Hg15 mi
9:55 AM86 °FBroken clouds.10 mph75%29.90 "Hg15 mi
8:50 AM84 °FBroken clouds.12 mph74%29.90 "Hg15 mi
7:53 AM81 °FBroken clouds.7 mph89%29.89 "Hg15 mi
6:50 AM79 °FBroken clouds.5 mph84%29.87 "Hg15 mi
5:50 AM79 °FPartly cloudy.7 mph89%29.85 "Hg15 mi
4:55 AM77 °FPassing clouds.7 mph94%29.84 "Hg15 mi
3:50 AM79 °FPartly cloudy.6 mph89%29.83 "Hg15 mi
2:52 AM79 °FPartly cloudy.9 mph89%29.84 "Hg15 mi
Weather by CustomWeather, © 2014

See weather overviewHow to use our weather pages